This demonstration page uses our WeatherBlox Daily Observations layout. Learn more.

Left ArrowRight Arrow

39.08367, -84.50855

Hourly Observations for July 21, 2017

Temp ( °F °C ) Dew Point ( °F °C ) Humidity (%) Winds ( mph kmh ) Pressure ( in mb ) Visibility ( mi km ) Precip ( " mm )
12:53 am 00:53 Clear 78 25.6 76 24.4 93 93 N N/A 29.99 1016 10 16.0934 N/A
1:53 am 01:53 Mostly Cloudy 77 25 75 23.9 94 94 N N/A 29.98 1015 9 14.48406 N/A
2:53 am 02:53 Mostly Cloudy 78 25.6 75 23.9 90 90 N N/A 29.97 1015 9 14.48406 N/A
3:53 am 03:53 Mostly Cloudy 77 25 75 23.9 94 94 N N/A 29.96 1015 10 16.0934 N/A
4:53 am 04:53 Mostly Cloudy 77 25 75 23.9 94 94 N N/A 29.96 1015 9 14.48406 N/A
5:53 am 05:53 Mostly Cloudy 75 23.9 74 23.3 96 96 WSW 3 6 29.97 1015 8 12.87472 N/A
6:53 am 06:53 Mostly Cloudy 77 25 75 23.9 94 94 S 5 7 29.98 1015 10 16.0934 N/A
7:53 am 07:53 Cloudy 79 26.1 75 23.9 88 88 SSW 6 9 30.01 1016 10 16.0934 N/A
8:06 am 08:06 Cloudy with Nearby Thunderstorms 79 26.1 73 22.8 82 82 N 23 37 30.03 1017 9 14.48406 N/A
8:18 am 08:18 Cloudy with Nearby Thunderstorms 77 25 72 22.2 85 85 NNW 12 19 30.03 1017 10 16.0934 0.01 0.254
8:29 am 08:29 Cloudy with Light Thunderstorms 75 23.9 72 22.2 90 90 N N/A 30.03 1017 10 16.0934 0.01 0.254
8:48 am 08:48 Cloudy with Rain 73 23 72 22 94 94 W 8 13 30.06 1018 4 6.43736 0.07 1.778
8:53 am 08:53 Cloudy with Heavy Thunderstorms 73 22.8 72 22.2 96 96 WSW 6 9 30.06 1018 2.5 4.02335 0.12 3.048
9:00 am 09:00 Cloudy with Heavy Thunderstorms 73 22.8 72 22.2 96 96 WSW 5 7 30.06 1018 3 4.82802 0.04 1.016
9:28 am 09:28 Partly Cloudy with Light Rain 74 23.3 72 22.2 94 94 N N/A 30.03 1017 7 11.26538 0.06 1.524
9:53 am 09:53 Partly Cloudy with Light Rain 73 22.8 73 22.8 100 100 SSE 3 6 30.04 1017 10 16.0934 0.08 2.032
10:53 am 10:53 Partly Cloudy 73 22.8 73 22.8 100 100 S 3 6 30.01 1016 10 16.0934 0.01 0.254
11:53 am 11:53 Mostly Sunny 75 23.9 74 23.3 96 96 S 3 6 30.03 1017 10 16.0934 N/A
12:12 pm 12:12 Partly Cloudy 77 25 75 23.9 94 94 S 9 15 30 1016 10 16.0934 N/A
12:53 pm 12:53 Mostly Sunny 78 25.6 74 23.3 87 87 SSW 10 17 30.02 1017 10 16.0934 N/A
1:53 pm 13:53 Sunny 81 27.2 74 23.3 79 79 VRB 3 6 30.02 1017 10 16.0934 N/A
2:53 pm 14:53 Sunny 85 29.4 75 23.9 72 72 S 7 11 29.99 1016 10 16.0934 N/A
3:53 pm 15:53 Sunny 87 30.6 75 23.9 67 67 SE 6 9 29.97 1015 10 16.0934 N/A
4:53 pm 16:53 Mostly Sunny 88 31.1 76 24.4 68 68 VRB 3 6 29.96 1015 10 16.0934 N/A
5:53 pm 17:53 Mostly Sunny 90 32.2 77 25 66 66 WSW 6 9 29.93 1014 10 16.0934 N/A
6:53 pm 18:53 Cloudy 89 31.7 78 25.6 70 70 E 3 6 29.92 1013 10 16.0934 N/A
7:39 pm 19:39 Mostly Cloudy with Thunderstorms 85 29.4 77 25 77 77 NE 7 11 29.91 1013 10 16.0934 N/A
7:53 pm 19:53 Mostly Cloudy with Light Thunderstorms 84 28.9 76 24.4 77 77 ENE 9 15 29.92 1013 10 16.0934 N/A
8:27 pm 20:27 Cloudy with Nearby Thunderstorms 83 28.3 75 23.9 77 77 N N/A 29.94 1014 10 16.0934 N/A
8:37 pm 20:37 Cloudy with Light Thunderstorms 81 27.2 77 25 88 88 N N/A 29.94 1014 10 16.0934 N/A
8:53 pm 20:53 Mostly Cloudy with Nearby Thunderstorms 83 28.3 76 24.4 79 79 E 5 7 29.95 1014 10 16.0934 N/A
9:14 pm 21:14 Clear 79 26.1 75 23.9 88 88 SSE 6 9 29.94 1014 10 16.0934 N/A
9:53 pm 21:53 Clear 77 25 73 22.8 88 88 SW 6 9 29.95 1014 10 16.0934 N/A
10:53 pm 22:53 Clear 75 23.9 74 23.3 96 96 N N/A 29.96 1014 10 16.0934 N/A
11:53 pm 23:53 Clear 73 22.8 73 22.8 100 100 N N/A 29.96 1015 10 16.0934 N/A

Powered by AerisWeather